Terminal Aerodrome Forecast
Issued by NWS Grand Forks, ND

Home | Current Version | Previous Version | Graphics & Text | Print | Product List | Glossary On
Versions: 1 2 3 4 5 6 7 8 9 10 11 12 13 14 15 16 17 18 19 20 21 22 23 24
000
FTUS43 KFGF 221422 AAA
TAFFAR
TAF AMD
KFAR 221422Z 2214/2312 23011KT P6SM FEW250
     FM221800 28011KT P6SM FEW200
     FM230000 01009KT P6SM SCT140
     FM230700 02011KT P6SM BKN030
     FM231100 04010KT P6SM BKN015=

USA.gov is the U.S. government's official web portal to all federal, state and local government web resources and services.